Home   Weather   Coachella   Past weeks
Flag for USA

Past Weather in Coachella, California, USA — Yesterday and Last 2 Weeks

Now
69 °F

Scattered clouds.


Feels Like: 69 °F
Forecast: 80 / 60 °F
Wind: 15 mph from Northwest

Location: Thermal Airport

Current Time: May 22, 2019 at 6:23:31 pm

Latest Report: May 22, 2019 at 5:52 pm


Visibility: 10 mi

Pressure: 29.67 "Hg

Humidity: 35%

Dew Point: 40 °F

Location of CoachellaLocation

Past Weather in Coachella — Graph

°F

Coachella Temperature Yesterday

Maximum temperature yesterday: 82 °F (at 1:52 pm)
Minimum temperature yesterday: 65 °F (at 3:52 am)
Average temperature yesterday: 72 °F

High & Low Weather Summary for the Past Weeks

 TemperatureHumidityPressure
High102 °F (May 14, 3:52 pm)63% (May 12, 4:52 am)29.91 "Hg (May 12, 4:52 am)
Low57 °F (May 22, 4:52 am)8% (May 15, 4:52 pm)29.56 "Hg (May 9, 4:52 pm)
Average78 °F35%29.77 "Hg
* Reported May 7 4:52 pm — May 22 4:52 pm, Coachella. Weather by CustomWeather, © 2019

Note: Actual official high and low records may vary slightly from our data, if they occured in-between our weather recording intervals... More about our weather records

Advertising

Coachella Weather History for the Previous 24 Hours

Scroll right to see more
 ConditionsComfort  
Time TempWeatherWind HumidityBarometerVisibility
4:52 pm
Wed, May 22
67 °FPartly sunny.17 mph41%29.66 "Hg10 mi
3:52 pm68 °FLight rain. Mostly cloudy.15 mph38%29.66 "Hg10 mi
2:52 pm71 °FLight rain. Overcast.9 mph29%29.65 "Hg10 mi
1:52 pm75 °FPassing clouds.18 mph24%29.61 "Hg10 mi
12:52 pm79 °FSunny.N/A16%29.62 "Hg10 mi
11:52 am74 °FPartly sunny.6 mph26%29.63 "Hg10 mi
10:52 am76 °FPartly sunny.7 mph26%29.64 "Hg10 mi
9:52 am74 °FSunny.7 mph28%29.64 "Hg10 mi
8:52 am73 °FSunny.9 mph30%29.65 "Hg10 mi
7:52 am69 °FSunny.3 mph39%29.65 "Hg10 mi
6:52 am65 °FSunny.6 mph45%29.64 "Hg10 mi
5:52 am60 °FSunny.6 mph52%29.62 "Hg10 mi
4:52 am57 °FClear.3 mph58%29.60 "Hg10 mi
12:52 am64 °FClear.9 mph47%29.65 "Hg10 mi
11:52 pm
Tue, May 21
65 °FClear.8 mph45%29.67 "Hg10 mi
10:52 pm66 °FClear.13 mph43%29.68 "Hg10 mi
9:52 pm67 °FClear.13 mph42%29.67 "Hg10 mi
8:52 pm68 °FClear.10 mph38%29.65 "Hg10 mi
7:52 pm70 °FClear.8 mph34%29.63 "Hg10 mi
6:52 pm74 °FSunny.15 mph28%29.61 "Hg10 mi
Weather by CustomWeather, © 2019

See weather overview